Retour au catalogue

METEOR 2-5 DEB

ActifPO
NORAD 39608·DEBRIS·🇷🇺 Russia

Lancé Oct 31, 1979 depuis Plesetsk Cosmodrome

Loading…

Prochains Passages (prochaines 24 heures)

TLE

PériméSource: Space-Track

Époque: Aug 26, 2026, 19:54 UTC

1 39608U 79095CK  26238.82922235  .00003663  00000-0  10885-2 0  9992
2 39608  81.1973  52.0759 0016129 164.2210 195.9484 14.43010361612866

Suivez METEOR 2-5 DEB en temps réel avec AllMySat

Download on the App Store